SCP
0 0 0 -0 -0 -0 -0 0 0 0 0 0 0 0 0 0 0 0 0 0 0 0 0 0 0 0 1 0 0 0 0 0
0 0 0 0 -0 -0 0 0 0 0 0 0 0 0 0 0 0 0 1 0 0 1 1 0 0 0 0 0 0 0 0 0
0 0 0 0 0 0 0 0 0 0 -0 0 0 0 0 0 0 0 1 0 1 0 0 0 1 1 1 1 1 1 1 0
-0 0 0 0 0 0 0 0 0 0 -0 -0 0 0 0 0 0 0 0 0 1 0 -0 0 0 0 1 1 1 1 1 1
0 0 0 0 0 0 0 0 0 0 0 0 0 0 0 0 0 0 0 0 0 0 0 0 0 0 0 0 1 1 1 1
0 0 0 0 0 0 0 0 0 0 0 0 -0 -0 -0 0 0 0 0 0 0 0 0 0 0 0 -0 0 0 0 1 1
0 0 0 0 0 0 0 0 0 0 0 0 0 0 0 0 0 0 0 0 0 0 0 0 0 0 0 -0 0 -0 0 0
0 0 0 0 0 0 0 0 0 0 0 0 0 0 0 0 0 0 0 -0 0 0 0 0 0 0 0 0 0 0 -0 0
0 0 0 0 0 0 0 0 0 0 0 0 0 0 0 0 0 0 0 -0 0 -0 -0 0 -0 -0 0 0 0 0 0 0
0 0 0 0 0 0 0 0 0 0 0 0 0 0 0 0 0 0 0 0 0 0 0 -0 -0 -0 -0 -0 0 0 0 0
0 0 0 0 0 0 0 0 0 0 0 0 0 0 0 0 0 0 0 0 0 0 0 0 -0 -0 -0 -0 -0 0 0 0
0 0 0 0 0 0 0 0 0 0 0 0 0 0 0 0 0 0 0 0 0 0 0 0 0 -0 0 -0 -0 0 0 0
0 0 0 0 0 0 0 0 0 0 0 0 0 0 0 0 0 0 0 0 0 0 0 0 0 0 -0 -0 0 -0 0 0
0 0 0 0 0 0 0 0 0 0 0 0 0 0 0 0 0 0 0 0 0 0 0 0 0 0 -0 -0 -0 -0 0 0
0 0 0 0 0 0 0 0 0 0 0 0 0 0 0 0 0 0 0 0 0 0 0 0 0 0 0 -0 -0 -0 -0 -0
0 0 0 0 0 0 0 0 0 0 0 0 0 0 0 0 0 0 0 0 0 0 0 0 0 0 0 0 0 0 -0 -0
0 0 0 0 0 0 0 0 0 0 0 0 0 0 0 0 0 0 0 0 0 0 0 0 0 0 0 0 0 0 0 -0
0 0 0 0 0 0 0 0 0 0 0 0 0 0 0 0 0 0 0 0 0 0 0 0 0 0 0 0 0 0 0 -0
0 0 0 0 0 0 0 0 0 0 0 0 0 0 0 0 0 0 0 0 0 0 0 0 0 0 0 0 0 0 -0 -0
0 0 0 0 0 0 0 0 0 0 0 0 0 0 0 0 0 0 0 0 0 0 0 0 0 0 0 0 0 0 0 -0
Wind_Speed_500mb
49 48 49 55 58 56 50 46 41 37 33 31 27 29 29 40 39 39 46 49 53 53 55 56 57 56 56 51 48 46 46 44
44 41 47 45 45 47 46 43 44 45 42 40 32 32 20 25 30 41 48 52 53 54 56 60 62 62 61 62 59 55 55 54
49 47 40 40 34 40 38 42 39 51 57 51 45 43 37 38 35 35 42 46 49 59 66 65 67 67 68 71 71 67 66 66
50 52 55 44 44 38 43 41 46 45 54 58 56 51 50 51 50 42 47 43 47 61 59 58 54 57 60 64 79 82 75 76
47 50 53 56 45 46 46 47 50 47 52 58 60 56 62 64 64 66 53 49 40 51 48 55 60 61 51 60 59 68 77 78
45 52 55 52 50 52 42 50 49 47 50 56 63 61 72 74 70 67 65 50 50 57 58 60 58 65 71 63 60 64 66 73
43 46 54 48 50 42 43 49 43 44 49 57 56 63 71 70 67 64 59 66 68 66 66 53 58 59 59 69 69 70 64 70
42 44 54 44 42 38 36 48 45 49 49 42 49 58 58 61 63 58 61 67 70 67 55 52 57 52 48 42 55 68 78 65
42 40 45 49 37 41 36 39 41 48 46 50 56 61 55 63 64 60 65 70 62 65 68 68 68 69 68 68 66 73 72 80
37 37 45 44 39 40 44 43 42 45 44 53 58 53 58 63 57 57 64 62 62 65 67 72 71 74 75 73 70 74 73 77
32 43 56 45 41 37 37 38 44 42 41 49 54 62 66 64 55 62 68 70 69 58 69 67 71 69 70 72 74 76 77 69
39 46 55 45 37 34 35 34 35 40 39 47 54 64 64 64 62 63 65 65 68 62 66 62 60 66 75 79 73 71 71 63
44 42 45 51 50 48 47 42 38 38 38 45 54 61 60 60 67 66 69 72 70 62 69 66 66 63 74 82 71 48 30 33
35 41 48 52 50 42 40 40 38 37 38 49 53 55 57 58 65 65 66 72 77 70 68 67 62 62 63 62 46 67 15 21
38 41 43 50 55 50 47 39 39 49 52 53 64 55 55 59 59 56 62 66 75 67 64 59 66 57 51 34 30 23 96 42
33 36 41 47 46 52 52 49 50 49 50 49 63 56 55 53 53 55 62 67 72 65 60 58 58 59 53 42 46 55 50 53
36 37 42 44 42 44 43 48 47 46 48 49 57 57 43 49 56 51 56 63 69 65 59 57 56 54 52 51 52 58 46 49
33 39 40 42 39 44 48 40 48 46 48 50 54 65 58 57 60 54 59 55 59 58 54 54 57 52 50 47 49 52 59 57
33 37 37 39 44 43 46 48 44 45 47 50 53 65 67 69 63 56 59 66 58 53 54 53 55 52 52 50 47 46 49 48
33 32 35 40 42 46 43 43 40 45 45 47 48 52 57 69 66 56 58 69 69 51 48 52 54 57 55 53 50 47 44 42
Wind_Direction_500mb
64 51 41 26 26 28 25 25 18 13 9 15 12 352 345 337 323 310 298 291 285 284 286 284 279 276 275 270 264 262 260 256
55 65 55 36 30 21 15 19 11 359 358 2 341 349 353 321 349 325 309 305 289 280 275 279 280 276 275 271 267 262 256 249
40 52 54 46 28 23 25 3 13 360 346 346 348 350 338 331 315 319 327 314 312 295 283 277 270 270 272 271 267 259 258 253
18 27 28 34 17 18 9 4 9 12 354 346 345 350 341 337 334 322 313 315 333 322 301 286 280 270 267 271 266 264 257 257
21 10 20 16 18 12 11 354 3 10 353 344 333 341 342 342 338 335 341 331 308 325 324 311 292 294 270 262 262 263 259 256
22 359 2 12 3 9 14 348 353 4 351 337 335 338 335 337 333 331 329 335 308 302 307 303 310 314 312 283 267 255 253 256
17 358 348 5 6 8 12 345 349 351 346 342 337 334 335 334 336 329 324 309 311 308 308 312 322 317 311 312 287 264 259 257
5 358 344 6 7 5 0 351 355 355 353 339 332 331 333 326 328 327 318 317 319 322 316 301 291 291 289 299 309 295 269 261
9 5 346 4 3 3 350 340 345 353 351 332 321 326 328 326 332 331 331 330 327 317 313 307 294 285 285 280 280 282 281 271
3 350 338 4 4 2 355 351 351 354 344 328 326 332 326 334 345 336 332 336 330 331 327 322 318 315 308 295 289 285 283 275
5 354 352 14 8 8 348 0 4 352 341 336 335 329 332 344 343 340 339 339 338 340 335 336 329 322 314 304 300 293 290 282
8 9 357 16 2 5 357 5 1 347 346 346 329 331 343 347 343 344 344 344 344 345 336 339 333 329 319 312 306 298 298 291
17 8 359 4 14 4 5 4 357 351 354 335 331 339 349 354 351 352 353 352 347 343 343 342 341 338 334 320 312 322 314 311
15 9 2 1 12 1 6 6 355 348 344 337 347 349 355 359 357 356 351 349 351 348 347 343 342 343 338 337 328 327 235 257
14 12 2 356 4 359 7 6 1 356 356 349 349 350 2 358 357 1 358 351 350 349 349 345 341 339 338 335 337 311 322 322
13 4 2 6 7 0 11 5 1 358 356 349 341 353 359 349 1 5 357 355 354 349 349 347 342 339 339 331 326 316 315 313
351 11 8 10 2 358 5 8 4 357 356 353 343 350 349 351 359 3 358 354 351 351 349 352 347 342 339 337 332 329 326 315
7 10 5 5 355 355 6 11 2 357 356 358 351 345 354 358 360 4 356 349 347 348 351 352 352 351 346 340 341 337 330 323
7 7 3 355 357 9 5 9 4 357 357 357 356 350 354 354 359 5 352 352 350 354 356 351 353 352 355 349 346 344 336 324
7 9 1 356 360 8 9 1 0 358 356 354 351 351 352 350 355 359 357 350 352 357 355 355 356 356 2 355 357 350 348 341
Wind_Speed_850mb
49 48 49 55 58 56 50 46 41 37 33 31 27 29 29 40 39 39 46 49 53 53 55 56 57 56 56 51 48 46 46 44
44 41 47 45 45 47 46 43 44 45 42 40 32 32 20 25 30 41 48 52 53 54 56 60 62 62 61 62 59 55 55 54
49 47 40 40 34 40 38 42 39 51 57 51 45 43 37 38 35 35 42 46 49 59 66 65 67 67 68 71 71 67 66 66
50 52 55 44 44 38 43 41 46 45 54 58 56 51 50 51 50 42 47 43 47 61 59 58 54 57 60 64 79 82 75 76
47 50 53 56 45 46 46 47 50 47 52 58 60 56 62 64 64 66 53 49 40 51 48 55 60 61 51 60 59 68 77 78
45 52 55 52 50 52 42 50 49 47 50 56 63 61 72 74 70 67 65 50 50 57 58 60 58 65 71 63 60 64 66 73
43 46 54 48 50 42 43 49 43 44 49 57 56 63 71 70 67 64 59 66 68 66 66 53 58 59 59 69 69 70 64 70
42 44 54 44 42 38 36 48 45 49 49 42 49 58 58 61 63 58 61 67 70 67 55 52 57 52 48 42 55 68 78 65
42 40 45 49 37 41 36 39 41 48 46 50 56 61 55 63 64 60 65 70 62 65 68 68 68 69 68 68 66 73 72 80
37 37 45 44 39 40 44 43 42 45 44 53 58 53 58 63 57 57 64 62 62 65 67 72 71 74 75 73 70 74 73 77
32 43 56 45 41 37 37 38 44 42 41 49 54 62 66 64 55 62 68 70 69 58 69 67 71 69 70 72 74 76 77 69
39 46 55 45 37 34 35 34 35 40 39 47 54 64 64 64 62 63 65 65 68 62 66 62 60 66 75 79 73 71 71 63
44 42 45 51 50 48 47 42 38 38 38 45 54 61 60 60 67 66 69 72 70 62 69 66 66 63 74 82 71 48 30 33
35 41 48 52 50 42 40 40 38 37 38 49 53 55 57 58 65 65 66 72 77 70 68 67 62 62 63 62 46 67 15 21
38 41 43 50 55 50 47 39 39 49 52 53 64 55 55 59 59 56 62 66 75 67 64 59 66 57 51 34 30 23 96 42
33 36 41 47 46 52 52 49 50 49 50 49 63 56 55 53 53 55 62 67 72 65 60 58 58 59 53 42 46 55 50 53
36 37 42 44 42 44 43 48 47 46 48 49 57 57 43 49 56 51 56 63 69 65 59 57 56 54 52 51 52 58 46 49
33 39 40 42 39 44 48 40 48 46 48 50 54 65 58 57 60 54 59 55 59 58 54 54 57 52 50 47 49 52 59 57
33 37 37 39 44 43 46 48 44 45 47 50 53 65 67 69 63 56 59 66 58 53 54 53 55 52 52 50 47 46 49 48
33 32 35 40 42 46 43 43 40 45 45 47 48 52 57 69 66 56 58 69 69 51 48 52 54 57 55 53 50 47 44 42
Wind_Direction_850mb
64 51 41 26 26 28 25 25 18 13 9 15 12 352 345 337 323 310 298 291 285 284 286 284 279 276 275 270 264 262 260 256
55 65 55 36 30 21 15 19 11 359 358 2 341 349 353 321 349 325 309 305 289 280 275 279 280 276 275 271 267 262 256 249
40 52 54 46 28 23 25 3 13 360 346 346 348 350 338 331 315 319 327 314 312 295 283 277 270 270 272 271 267 259 258 253
18 27 28 34 17 18 9 4 9 12 354 346 345 350 341 337 334 322 313 315 333 322 301 286 280 270 267 271 266 264 257 257
21 10 20 16 18 12 11 354 3 10 353 344 333 341 342 342 338 335 341 331 308 325 324 311 292 294 270 262 262 263 259 256
22 359 2 12 3 9 14 348 353 4 351 337 335 338 335 337 333 331 329 335 308 302 307 303 310 314 312 283 267 255 253 256
17 358 348 5 6 8 12 345 349 351 346 342 337 334 335 334 336 329 324 309 311 308 308 312 322 317 311 312 287 264 259 257
5 358 344 6 7 5 0 351 355 355 353 339 332 331 333 326 328 327 318 317 319 322 316 301 291 291 289 299 309 295 269 261
9 5 346 4 3 3 350 340 345 353 351 332 321 326 328 326 332 331 331 330 327 317 313 307 294 285 285 280 280 282 281 271
3 350 338 4 4 2 355 351 351 354 344 328 326 332 326 334 345 336 332 336 330 331 327 322 318 315 308 295 289 285 283 275
5 354 352 14 8 8 348 0 4 352 341 336 335 329 332 344 343 340 339 339 338 340 335 336 329 322 314 304 300 293 290 282
8 9 357 16 2 5 357 5 1 347 346 346 329 331 343 347 343 344 344 344 344 345 336 339 333 329 319 312 306 298 298 291
17 8 359 4 14 4 5 4 357 351 354 335 331 339 349 354 351 352 353 352 347 343 343 342 341 338 334 320 312 322 314 311
15 9 2 1 12 1 6 6 355 348 344 337 347 349 355 359 357 356 351 349 351 348 347 343 342 343 338 337 328 327 235 257
14 12 2 356 4 359 7 6 1 356 356 349 349 350 2 358 357 1 358 351 350 349 349 345 341 339 338 335 337 311 322 322
13 4 2 6 7 0 11 5 1 358 356 349 341 353 359 349 1 5 357 355 354 349 349 347 342 339 339 331 326 316 315 313
351 11 8 10 2 358 5 8 4 357 356 353 343 350 349 351 359 3 358 354 351 351 349 352 347 342 339 337 332 329 326 315
7 10 5 5 355 355 6 11 2 357 356 358 351 345 354 358 360 4 356 349 347 348 351 352 352 351 346 340 341 337 330 323
7 7 3 355 357 9 5 9 4 357 357 357 356 350 354 354 359 5 352 352 350 354 356 351 353 352 355 349 346 344 336 324
7 9 1 356 360 8 9 1 0 358 356 354 351 351 352 350 355 359 357 350 352 357 355 355 356 356 2 355 357 350 348 341